User: anonymous   Login
Location: Oshawa
(43.9000°N, 78.8670°W)
Time: 16:38:44
(UTC-05:00)
Language:

Envisat - Orbit

View from above orbital plane
View from above orbital plane
View from above satellite
View from above satellite

Ground track
Ground track

The orbit data is extracted from the following two-line orbital elements,

1 27386U 02009A   14352.21922114  .00000155  00000-0  65743-4 0  7341
2 27386 098.3604 052.8402 0000673 086.1481 273.9786 14.37766868670026
Epoch (UTC): 18 December 2014 05:15:40
Eccentricity: 0.0000673
inclination: 98.3604°
perigee height: 765 km
apogee height: 766 km
right ascension of ascending node: 52.8402°
argument of perigee: 86.1481°
revolutions per day: 14.37766868
mean anomaly at epoch: 273.9786°
orbit number at epoch: 67002

The dashed part of the orbit path shows where the satellite is in the earth's shadow,  

DLR